カタログに戻る

STARLINK-5877

運用中通信SSO
NORAD 56354·PAYLOAD·🇺🇸 United States

打ち上げ Apr 27, 2023 から Vandenberg Space Force Base

Loading…

次のパス (今後24時間)

TLE

最新Source: CelesTrak SupGP

元期: Sep 14, 2026, 22:05 UTC

1 56354C 23058AP  26257.92062500  .00055657  00000+0  17280-2 0  2571
2 56354  97.2846 254.8020 0001764  89.2287 255.9489 15.33405311    15

AllMySatでSTARLINK-5877をリアルタイム追跡

Download on the App Store